Theta_e
308 307 309 309 311 298 306 308 303 306 312 309 305 306 309 308 305 303 317 314 316 321 322 324 331 331 331 331 331 332 333 334 335 335 336 339 338 338 339 338 340 342 343 346 347 349 350 351 352 351 354 357 357 357 357 358 360 360 359 360 359 361 361
308 311 310 310 310 309 310 305 306 312 316 314 307 301 307 304 301 306 312 308 310 312 306 325 328 328 330 330 330 332 334 335 335 336 338 340 339 338 340 342 342 342 343 346 346 348 350 351 351 352 357 359 359 358 358 357 358 359 359 359 359 360 361
309 311 310 307 311 313 309 307 313 306 302 301 308 306 297 298 298 302 308 309 308 310 312 321 323 323 326 329 331 331 332 334 334 336 339 341 340 339 340 340 342 342 343 345 347 348 349 351 353 353 357 358 358 357 357 356 356 358 358 358 358 360 361
311 310 308 300 307 313 314 316 312 313 310 305 304 305 306 307 301 302 303 307 305 318 323 321 326 327 329 328 328 328 332 334 335 336 338 339 339 339 340 340 340 342 343 345 348 349 347 349 351 352 355 356 355 355 356 356 356 358 359 358 359 359 359
310 303 306 304 305 305 306 307 308 309 308 317 313 313 308 305 303 302 300 299 305 319 328 328 329 331 331 332 331 332 332 334 337 337 337 339 340 340 341 340 340 343 344 346 349 350 348 350 353 353 355 355 355 355 355 356 356 355 355 357 358 360 358
305 308 311 310 310 309 306 306 308 310 307 305 302 302 312 309 305 299 302 299 308 327 333 332 331 335 335 335 332 331 333 334 338 339 339 340 338 341 341 341 341 343 346 347 348 351 351 351 354 354 354 354 355 354 355 356 358 358 357 356 359 361 361
305 309 311 314 315 313 311 310 311 314 312 311 306 297 304 308 309 310 309 304 306 326 333 333 334 335 335 335 334 333 332 334 337 339 340 342 340 338 339 341 342 344 347 348 348 351 351 352 356 356 357 353 354 353 356 357 358 359 357 357 359 362 361
307 309 311 314 316 313 310 312 314 311 307 309 308 307 310 307 308 305 307 304 308 329 334 335 336 337 336 337 336 335 336 334 335 338 340 345 344 340 339 343 344 347 349 351 351 352 351 353 357 357 358 356 355 353 355 357 358 359 358 359 359 363 361
302 306 309 309 314 313 310 310 313 312 312 312 312 311 312 304 304 305 304 299 304 323 334 335 335 334 334 335 335 336 335 336 337 339 340 341 342 341 339 339 342 346 348 350 351 352 353 355 357 358 359 358 358 357 359 359 361 362 361 362 361 363 362
291 292 294 298 302 309 311 312 311 314 313 310 308 303 306 299 306 308 304 304 315 323 331 331 331 331 332 334 335 336 338 337 336 337 338 341 340 340 341 341 341 342 347 352 353 354 355 356 359 360 361 360 359 362 362 363 363 362 363 364 362 363 363
299 300 307 311 312 308 305 308 309 309 314 312 312 310 306 303 307 307 308 308 312 316 321 327 328 330 329 330 333 335 335 337 338 339 338 339 340 341 340 342 344 346 347 351 354 354 355 357 359 360 361 361 360 363 364 365 366 362 364 364 365 365 364
311 311 312 313 314 310 309 307 308 311 312 313 310 306 305 319 306 300 318 324 312 318 322 325 327 330 331 331 333 334 335 336 337 339 341 340 340 340 342 341 342 344 346 351 353 355 355 356 359 360 362 362 362 364 364 366 368 366 365 366 366 366 365
310 312 313 315 313 311 310 310 310 313 315 313 308 308 309 314 306 302 316 322 320 320 323 325 328 331 331 332 333 334 335 336 338 339 338 339 339 341 341 342 343 347 346 350 352 354 356 356 357 359 361 363 364 366 367 368 368 368 369 367 367 365 365
311 312 311 310 308 308 310 310 311 312 315 314 313 314 314 313 312 318 319 321 321 322 325 327 329 333 334 334 336 336 335 335 337 337 338 338 339 340 341 343 344 345 346 348 350 353 354 355 356 358 360 361 362 363 364 365 366 367 367 366 364 363 364
308 310 309 310 308 307 306 309 311 314 316 316 316 315 316 317 317 317 317 320 320 327 331 330 333 335 335 335 334 334 336 335 336 336 337 338 339 340 341 342 345 346 347 347 348 350 352 352 354 355 356 357 360 360 361 362 361 363 364 363 362 362 362
304 309 308 305 305 305 306 305 308 311 311 309 314 316 318 316 315 318 318 317 317 326 331 331 333 333 333 333 334 334 335 335 336 335 335 336 338 340 339 341 342 343 344 345 345 346 348 351 353 355 356 356 357 359 361 361 362 363 363 362 357 355 360
304 306 307 305 303 303 301 303 308 313 315 317 317 320 321 321 320 317 314 316 325 328 331 329 330 331 332 332 330 332 336 337 337 336 337 338 338 338 340 340 342 343 343 343 345 346 348 350 353 354 357 355 356 357 358 359 360 360 359 356 352 352 355
301 305 305 305 301 294 297 313 317 317 316 316 315 316 319 322 324 322 325 325 328 329 330 328 327 327 327 329 329 331 331 333 334 335 336 336 337 339 341 340 340 342 342 344 344 345 347 350 355 355 357 356 356 357 358 359 357 355 353 349 352 355 356
301 304 304 299 294 296 309 315 319 320 320 321 319 320 322 323 325 325 325 326 328 330 329 329 329 330 330 330 328 329 331 332 332 332 332 333 334 335 337 339 341 342 343 344 344 344 344 347 348 349 350 352 353 354 355 355 356 354 354 354 354 355 355
304 300 299 291 293 307 313 316 319 321 318 318 318 318 322 323 322 325 326 328 328 330 329 329 331 332 333 332 331 331 332 333 332 331 331 333 334 334 334 334 335 337 341 342 342 343 345 345 346 345 345 346 346 346 348 350 350 349 349 351 354 357 358
297 299 299 298 308 307 311 311 313 316 314 315 315 310 315 325 324 325 327 329 329 330 331 331 331 331 332 330 330 332 332 332 332 332 332 333 333 335 336 336 336 338 339 341 344 346 344 343 342 342 344 344 344 345 345 345 347 347 346 347 350 353 353
303 299 297 299 299 295 305 314 318 320 320 320 321 317 313 326 324 323 323 323 328 330 330 330 330 331 329 325 324 328 331 331 332 332 333 334 334 334 335 337 339 340 341 341 344 345 344 344 344 344 345 345 344 343 343 345 346 346 345 345 348 350 350
301 299 296 296 294 299 311 315 317 320 322 321 322 314 309 324 327 327 325 325 329 329 329 329 331 328 320 321 324 328 331 331 332 332 333 333 334 335 336 336 336 337 339 341 342 343 345 345 346 346 345 345 343 341 343 344 345 344 344 345 346 346 347
302 300 298 296 301 304 313 316 318 320 324 321 316 301 303 319 328 329 329 328 327 328 330 330 330 324 319 323 325 330 331 331 331 331 331 332 333 334 336 336 336 337 339 340 340 341 342 344 348 347 345 344 342 341 341 343 343 343 344 346 347 348 348
301 300 299 301 305 313 316 318 321 320 322 319 307 298 312 321 326 329 330 329 328 329 328 329 326 327 328 328 330 331 331 329 329 331 332 333 334 334 335 335 336 336 337 337 336 337 339 341 344 345 345 345 343 343 343 342 342 344 346 347 346 344 346
299 301 298 299 306 317 322 322 318 321 315 304 302 319 327 328 328 329 330 329 329 329 328 329 327 327 330 331 330 329 328 328 328 329 330 331 332 334 335 336 337 336 336 336 337 336 338 340 342 344 344 344 344 344 343 342 345 347 347 346 345 344 344
303 305 300 296 292 314 320 320 317 320 311 314 321 325 325 327 327 327 330 331 330 330 327 329 328 329 330 328 328 328 328 328 329 329 329 329 329 330 331 332 334 334 333 333 333 335 336 338 340 342 343 341 341 341 340 342 345 346 346 345 344 343 343
300 298 296 296 314 318 322 320 312 318 322 325 327 326 324 326 327 326 328 329 330 329 328 327 327 328 328 328 328 328 328 328 329 328 329 329 330 330 331 332 333 333 332 332 332 334 335 337 337 338 337 335 335 335 336 340 343 345 347 346 345 343 342
304 305 311 316 322 323 324 325 323 324 326 327 327 327 326 325 325 329 327 329 330 331 330 328 327 326 327 327 328 327 327 327 328 328 328 328 329 330 330 329 331 332 331 331 330 330 333 335 336 337 336 335 335 334 337 340 339 339 339 339 339 340 341
317 317 322 323 322 322 324 325 326 324 325 327 327 326 325 327 328 329 328 328 331 333 331 327 325 324 325 325 326 326 325 325 327 329 329 329 330 330 330 330 330 331 331 331 330 330 332 334 335 336 335 335 333 334 336 337 337 337 337 335 334 334 335
308 304 319 320 322 322 324 324 325 326 326 327 328 327 328 328 329 329 330 330 331 331 329 327 325 324 324 323 324 325 325 324 325 326 328 329 330 330 330 330 330 329 330 329 328 328 329 331 333 333 334 334 335 335 335 335 336 337 337 336 336 336 335
311 315 319 321 323 324 325 326 325 323 326 327 328 329 330 330 331 331 332 333 331 330 327 328 327 325 325 324 324 324 324 323 324 326 327 329 330 331 332 333 332 331 330 329 329 330 330 331 332 333 333 333 335 335 335 335 335 335 335 335 335 335 335
315 318 321 322 324 324 324 325 327 327 327 327 328 328 328 329 329 330 332 333 329 327 329 330 327 325 325 325 325 324 322 322 322 323 324 326 327 329 330 331 332 331 330 329 329 330 331 332 333 333 333 333 334 335 335 336 336 335 334 335 335 334 334
308 308 315 321 313 313 319 323 326 328 329 329 328 328 328 328 328 329 329 329 328 327 327 327 327 326 325 325 324 321 322 323 324 324 324 324 324 324 326 328 330 331 332 331 330 329 331 334 334 333 333 334 335 335 337 337 337 335 334 333 334 334 334
311 316 323 324 324 322 323 324 327 329 331 330 328 328 328 328 330 330 329 327 326 325 327 328 326 325 324 323 323 322 323 326 327 326 326 325 326 326 328 328 328 328 328 329 329 329 330 331 332 333 333 333 334 335 337 337 336 334 331 329 330 330 333
319 324 323 324 323 320 322 326 328 329 332 330 329 330 330 330 331 332 331 329 327 326 327 326 326 326 324 323 322 322 323 324 325 324 325 326 327 327 328 329 331 331 331 331 330 329 330 330 329 330 329 331 333 333 337 337 337 336 334 330 328 329 332
319 328 327 329 327 326 327 328 329 331 331 331 329 329 329 330 330 330 328 327 328 326 325 324 325 327 325 323 324 324 323 324 325 324 326 326 325 323 323 324 327 329 330 330 331 332 332 331 331 330 330 330 331 330 333 333 334 335 334 333 331 330 331
Wind_Speed
13 14 13 13 11 9 8 8 10 10 5 8 7 7 6 9 8 8 4 6 8 5 8 7 10 7 8 6 8 12 12 13 15 16 17 17 16 16 15 14 13 15 14 14 13 13 12 13 13 13 14 14 15 14 15 16 15 15 15 14 14 13 12
9 11 12 13 15 8 4 9 9 8 3 3 5 6 2 5 8 5 7 7 5 4 1 1 5 8 6 7 8 10 11 13 15 15 16 17 16 15 15 15 14 15 14 14 13 13 14 13 14 15 15 14 13 14 15 16 16 16 15 15 15 13 13
6 7 9 12 10 7 7 8 5 10 9 11 7 3 6 5 7 7 5 7 6 4 2 5 5 3 7 6 7 9 11 13 13 14 16 17 18 16 14 15 14 14 14 14 14 14 14 14 14 15 15 14 13 13 14 16 17 16 16 14 13 12 13
3 9 11 11 10 11 10 6 6 7 4 8 9 7 5 3 7 6 7 3 2 4 5 6 6 4 4 4 7 7 10 12 11 11 13 15 16 15 14 14 14 14 14 15 14 14 15 15 14 13 14 13 15 14 14 14 15 15 15 15 14 13 13
3 8 9 10 11 11 11 9 8 9 7 2 2 2 7 6 6 4 6 5 3 4 5 6 5 5 4 2 2 5 5 9 11 11 10 9 12 13 14 13 13 14 14 14 14 14 13 13 13 13 14 14 14 13 14 15 15 16 16 15 15 13 12
4 6 5 5 7 12 10 9 9 9 11 10 10 7 7 10 7 3 4 4 3 4 2 5 5 5 4 4 1 2 3 7 8 9 10 7 7 9 12 13 14 14 13 13 14 12 11 11 12 13 13 13 13 14 13 13 13 13 14 14 13 13 12
7 12 10 8 7 6 8 9 7 8 7 3 6 6 3 8 10 6 5 6 3 4 4 4 5 6 6 5 3 3 2 3 4 6 9 10 11 8 8 10 12 12 13 13 13 13 13 13 12 13 12 13 13 14 13 12 12 13 14 14 13 12 12
2 3 5 6 6 6 8 8 8 7 8 8 6 5 7 9 9 6 4 6 3 6 4 4 5 7 6 6 6 6 4 3 3 2 3 4 8 10 8 4 6 8 9 10 10 13 13 13 12 13 12 12 13 13 13 13 14 14 14 13 12 12 12
4 6 4 8 6 6 8 7 4 3 7 11 6 6 2 7 5 5 6 4 1 5 3 4 6 7 8 8 7 5 5 5 5 5 5 5 6 8 9 9 6 6 8 11 11 12 12 12 12 12 12 11 11 12 12 13 13 13 12 11 12 12 13
7 7 5 4 6 8 1 6 2 3 8 12 9 9 6 5 4 6 5 5 7 4 3 5 6 6 6 7 7 7 5 5 5 5 5 6 7 6 8 8 10 11 10 10 11 11 11 12 12 12 12 12 11 11 13 12 12 12 12 11 12 12 12
5 7 2 2 2 4 4 3 3 7 7 13 9 4 5 6 2 4 7 9 2 3 5 4 6 6 6 5 6 7 6 5 4 4 5 6 7 7 7 8 9 10 10 12 12 13 11 12 11 11 12 12 12 12 12 12 12 12 12 11 11 11 11
7 11 3 9 11 8 10 11 10 14 14 13 9 7 3 6 3 5 6 6 3 3 1 6 5 5 5 5 5 6 5 5 4 4 4 6 8 8 7 8 9 11 12 11 11 11 12 11 11 10 10 11 11 12 12 11 11 11 10 11 11 11 10
12 11 10 11 11 8 4 6 15 6 3 3 8 8 5 1 7 6 3 4 2 5 5 4 5 5 5 5 5 4 4 3 4 4 4 5 5 6 9 8 8 8 10 10 10 10 10 10 11 10 9 10 10 9 10 10 10 10 10 10 11 10 9
7 9 12 12 12 7 4 4 10 13 4 3 3 1 3 7 7 3 0 1 4 4 4 4 4 2 3 4 2 4 4 4 3 4 4 4 4 4 6 6 7 7 5 6 8 9 10 10 9 7 7 8 9 10 10 10 9 9 8 8 9 9 9
1 6 9 11 11 7 4 10 11 9 8 5 4 3 1 2 4 2 3 4 3 4 3 4 1 1 3 4 4 5 5 4 4 3 3 3 3 3 3 3 3 5 6 3 5 8 10 9 10 9 8 6 7 7 7 8 8 9 9 8 8 7 7
8 7 7 8 11 8 2 2 7 8 4 5 4 3 2 4 4 4 5 7 3 4 3 4 3 4 5 6 6 5 5 5 4 3 3 3 3 3 3 2 4 4 5 5 5 7 6 9 10 9 7 7 6 6 6 6 6 6 6 4 4 3 2
2 4 5 9 10 6 1 8 9 3 4 3 1 1 2 1 3 5 4 3 4 4 4 6 7 6 7 10 12 11 10 7 6 6 7 7 5 3 2 4 4 3 2 3 6 5 6 7 7 8 8 9 9 8 7 6 6 5 5 6 9 10 7
4 7 6 9 10 10 5 6 4 2 2 1 2 3 3 2 3 2 3 4 6 5 5 7 8 8 8 9 9 10 10 9 9 10 11 9 8 7 5 1 4 5 3 2 2 5 6 6 7 8 8 8 8 7 7 6 5 4 5 4 6 7 8
4 6 9 8 10 4 2 4 3 3 4 1 2 1 1 2 1 2 5 6 6 7 8 8 7 7 8 10 11 11 11 11 10 10 10 9 8 8 8 9 8 3 4 5 4 3 3 5 5 6 7 8 8 7 5 4 3 4 6 7 7 8 8
3 5 5 8 1 2 3 3 4 3 3 3 4 4 4 3 4 3 5 4 6 7 9 6 5 5 7 8 9 9 9 10 9 9 9 9 9 8 6 6 6 6 6 1 6 4 4 5 4 2 3 4 5 6 5 5 5 5 4 6 6 6 6
7 2 4 3 1 5 6 4 5 5 1 1 1 0 3 4 3 2 2 4 5 6 7 8 6 5 5 8 8 9 9 9 8 8 8 8 8 8 7 6 4 4 3 3 1 5 6 5 5 5 5 4 4 5 6 5 6 6 6 6 7 7 7
5 6 5 4 4 5 3 4 6 3 3 3 2 3 4 5 8 3 3 1 3 5 6 6 4 2 4 5 6 7 8 8 8 7 6 6 7 7 7 6 6 5 4 2 1 3 6 7 7 6 6 7 6 6 6 6 6 6 7 7 7 6 5
4 6 7 4 5 1 4 5 4 5 2 2 3 4 3 3 6 7 7 7 4 3 3 4 2 2 1 5 5 5 8 9 8 8 8 7 7 6 6 6 6 6 5 5 3 1 3 7 7 7 7 9 8 7 7 7 7 7 7 6 4 5 5
6 7 6 5 1 2 3 4 3 3 2 2 2 5 5 0 3 2 4 4 4 4 2 1 1 5 4 5 6 7 9 9 8 8 7 7 7 5 6 6 5 5 5 6 6 5 2 2 6 7 7 6 5 5 5 5 6 6 6 5 4 4 3
7 8 8 6 3 4 3 4 3 2 1 3 6 2 4 4 2 3 1 4 3 3 0 2 4 8 8 7 8 9 9 9 9 8 7 7 7 7 7 6 5 5 7 7 8 8 6 5 2 5 7 8 9 8 7 7 8 7 5 3 3 4 3
10 7 9 6 2 2 1 2 1 2 4 5 2 5 2 2 2 0 2 4 4 2 2 4 7 7 8 10 9 9 9 9 8 8 9 8 8 8 8 8 6 7 8 9 9 9 9 7 3 2 4 5 7 8 8 9 9 5 5 4 4 4 5
7 6 7 5 6 4 1 3 3 1 5 3 1 2 2 3 2 2 3 4 5 4 5 7 9 9 9 9 8 8 8 8 9 9 9 9 9 9 9 10 10 9 9 9 10 10 10 9 8 5 3 4 5 5 3 3 1 3 4 4 4 4 4
6 8 9 3 3 2 3 3 2 4 3 3 2 1 3 1 1 2 4 3 4 5 7 8 9 9 9 9 8 8 9 10 10 9 9 9 9 9 10 10 10 11 11 10 10 11 11 11 10 9 10 9 8 8 7 4 2 1 2 4 5 6 5
5 2 2 2 2 2 2 2 3 3 3 2 2 2 1 2 1 1 3 6 5 7 9 9 8 9 8 9 7 8 9 9 10 10 10 9 10 10 11 11 11 12 13 13 13 12 12 12 11 9 9 11 11 10 8 7 7 9 9 10 10 7 6
2 2 2 4 3 4 4 3 2 3 4 4 1 2 2 1 2 2 2 6 7 9 9 10 8 8 9 9 9 9 9 9 9 10 10 10 10 12 11 11 12 12 13 14 14 14 14 13 12 11 11 11 13 10 9 9 9 9 9 10 9 8 8
2 3 5 5 4 3 4 4 4 3 2 3 1 1 1 4 3 3 5 6 9 10 10 10 10 11 10 10 9 9 8 9 9 9 10 10 10 11 11 9 9 11 12 12 14 14 14 12 13 12 12 11 11 10 10 10 9 9 10 11 10 9 9
5 2 5 3 4 2 1 3 4 4 4 3 2 2 3 3 5 5 7 9 11 10 10 10 10 10 9 9 8 8 8 8 8 8 8 9 9 10 10 10 11 12 12 13 12 13 12 10 12 13 12 11 10 9 9 9 9 10 11 11 11 11 10
3 4 5 4 5 4 4 4 3 3 3 5 5 6 7 7 7 8 9 10 11 10 11 10 10 11 10 9 9 9 8 9 8 8 8 8 8 8 9 10 10 10 11 12 13 14 13 13 13 13 13 12 11 10 9 8 7 9 9 11 10 11 10
6 4 7 10 6 6 6 5 6 6 5 6 7 7 8 8 9 9 12 12 12 11 11 10 10 11 10 10 10 11 10 9 10 9 9 9 9 9 8 8 9 10 10 11 11 12 11 10 11 11 12 11 10 11 10 9 9 9 9 9 10 9 9
3 3 7 5 2 6 6 6 6 6 6 7 9 9 10 10 10 12 14 15 13 12 10 9 10 10 10 11 11 11 10 9 9 9 9 9 8 9 9 9 10 10 9 9 10 10 9 8 9 9 9 9 9 9 9 8 8 8 8 8 8 7 8
5 5 7 3 4 6 8 8 7 6 6 8 10 9 10 11 11 11 11 12 12 11 9 10 10 10 10 11 11 12 12 11 10 10 10 10 9 8 8 9 9 9 9 9 9 9 8 8 8 8 8 8 7 8 7 7 7 8 7 7 7 6 7
5 6 7 7 9 9 8 8 6 6 7 8 9 10 10 11 11 11 13 12 11 11 11 11 10 9 10 11 10 10 10 11 10 10 10 9 9 8 9 10 9 8 7 7 7 7 7 7 8 8 8 7 7 7 7 7 7 7 7 7 7 7 6
Wind_Direction
194 203 203 198 207 226 167 198 215 224 252 229 248 253 254 281 272 263 206 229 230 259 255 233 178 163 155 175 194 193 188 189 193 192 189 192 195 195 196 200 202 197 194 191 190 187 187 185 182 184 179 179 180 175 177 180 183 185 187 189 190 189 192
205 221 203 207 197 236 156 224 215 204 254 268 230 265 330 290 265 211 206 226 247 241 257 66 171 186 177 165 188 195 187 184 189 191 190 190 190 191 192 197 201 200 196 191 192 190 189 185 184 183 182 180 178 178 180 181 182 186 186 188 189 188 189
171 195 217 215 205 240 241 251 153 195 190 206 198 229 252 256 229 227 206 229 261 253 203 126 130 184 174 176 167 180 189 190 189 189 190 190 188 186 189 195 196 200 195 193 192 192 189 187 187 185 180 180 177 181 183 186 187 187 188 187 189 188 188
157 210 200 203 191 203 238 261 218 204 243 216 201 213 248 241 278 253 190 209 219 56 31 45 59 7 39 147 154 179 202 193 188 192 193 191 190 188 186 190 196 197 198 196 190 192 191 188 188 186 181 183 182 183 183 188 186 186 189 190 186 191 192
248 201 203 208 200 192 195 219 208 176 203 84 261 341 259 249 263 292 262 221 183 55 17 354 12 20 8 0 162 139 215 214 193 192 191 185 187 185 186 187 192 197 198 195 189 193 194 189 184 184 181 186 184 184 182 189 186 187 189 191 187 191 191
293 318 229 275 246 205 201 208 207 203 184 183 201 210 207 248 247 237 275 221 108 53 8 353 4 12 8 13 84 142 215 223 201 191 188 168 178 173 180 187 195 196 195 194 192 190 189 185 181 187 183 184 181 185 182 189 184 189 189 192 189 187 194
200 209 245 242 282 237 217 206 203 204 205 195 211 227 251 259 241 224 224 281 127 46 26 8 9 21 26 28 68 119 219 236 212 205 211 189 179 174 175 190 199 197 193 191 191 185 184 182 181 183 182 184 183 185 182 184 185 190 191 193 189 187 193
84 163 183 218 225 233 215 201 196 200 220 209 160 216 227 211 209 222 228 241 118 44 35 26 35 50 51 47 58 101 112 99 111 191 168 167 169 163 161 163 192 196 189 188 186 184 184 181 177 180 182 185 185 186 180 180 186 190 195 189 191 188 192
227 177 156 172 180 229 214 189 119 267 269 226 208 209 223 250 232 232 236 255 186 26 2 56 47 48 57 63 63 73 106 122 120 114 132 157 152 156 165 180 190 197 195 187 186 185 182 180 180 181 181 185 182 180 177 178 183 189 197 188 192 189 194
227 186 189 209 164 213 114 1 68 231 266 246 206 222 203 246 238 305 277 248 102 148 319 45 49 46 59 72 80 80 80 108 139 149 142 154 152 155 165 173 186 200 203 197 189 184 183 182 181 181 179 182 179 176 178 177 176 181 192 188 190 191 196
179 243 64 28 104 268 252 153 275 261 254 252 243 241 253 234 207 223 244 273 14 36 352 18 45 44 46 61 75 74 81 83 96 134 156 163 167 168 179 190 187 190 201 204 196 187 187 184 183 184 182 182 180 176 179 178 176 176 182 186 188 193 196
138 170 145 75 62 59 10 330 232 207 213 214 213 210 216 45 294 258 41 344 222 129 355 38 30 37 56 55 64 78 83 88 96 114 161 165 169 164 173 196 206 198 199 202 202 195 190 184 184 185 187 184 183 179 178 176 175 173 176 181 184 191 197
151 142 106 91 83 64 87 276 292 297 329 181 223 209 244 256 263 291 65 354 35 51 45 29 38 3 47 48 58 71 80 103 117 124 141 175 175 169 170 195 207 217 206 203 207 201 195 186 189 187 186 185 186 185 180 174 171 170 170 177 180 185 193
118 118 108 93 69 31 353 323 310 319 328 6 345 254 226 239 232 259 10 50 65 31 30 35 41 354 42 67 96 104 88 75 78 112 133 126 142 173 193 186 180 196 218 217 200 201 207 195 187 193 197 196 197 196 192 186 177 174 171 177 185 186 193
193 118 106 98 84 68 8 350 324 294 347 8 13 340 190 141 182 157 200 196 126 80 33 72 111 87 92 82 59 60 67 80 85 92 100 113 129 138 133 155 170 188 185 202 221 205 199 166 170 183 191 207 212 210 200 191 184 184 178 182 190 194 192
178 181 139 114 111 114 137 155 274 307 343 347 295 235 327 266 207 177 209 220 148 103 121 105 115 108 83 71 56 61 60 63 64 61 88 99 102 133 143 164 202 201 196 186 202 203 175 171 181 187 178 180 184 194 191 189 171 148 151 121 64 344 304
129 143 229 152 144 122 196 230 233 172 189 172 106 174 215 285 289 204 232 68 77 111 114 114 87 73 60 46 22 15 23 32 45 48 42 42 37 57 149 182 180 141 135 188 174 150 174 189 168 161 154 156 159 151 149 151 128 155 151 137 168 197 207
276 216 199 235 193 212 210 123 166 130 53 16 30 20 32 62 242 21 49 94 114 119 110 80 71 54 45 46 46 38 30 22 36 34 35 36 29 23 15 268 190 174 149 94 154 184 174 160 149 148 155 150 150 155 163 168 160 142 147 202 229 213 211
214 183 215 224 233 230 150 216 153 138 136 347 70 96 22 23 49 129 140 123 109 95 80 78 83 80 76 62 51 42 35 34 33 36 37 35 36 35 31 32 32 36 181 171 165 171 176 148 142 143 137 143 146 146 150 160 162 169 174 199 220 225 224
250 242 207 244 180 235 220 165 184 147 213 162 240 209 141 105 26 333 108 105 115 107 104 114 113 121 116 94 70 55 49 44 41 39 35 36 37 42 34 36 31 27 21 208 197 188 157 158 165 161 123 112 125 127 137 154 171 192 198 215 221 223 224
260 253 250 254 3 245 181 208 208 221 187 260 331 74 92 93 117 54 73 110 114 121 116 122 137 146 150 109 76 47 45 39 43 45 41 37 39 38 43 38 39 37 28 30 88 173 168 169 172 173 162 161 163 157 161 179 198 189 197 212 225 229 227
250 262 248 238 226 268 108 117 96 82 85 77 99 281 138 129 116 140 118 292 167 144 129 123 152 175 198 138 73 40 41 42 40 48 50 48 46 42 39 38 35 34 45 65 143 223 181 180 178 167 153 164 165 174 182 195 206 207 203 211 211 210 217
221 246 265 248 261 86 31 115 102 89 48 67 114 250 152 88 135 151 170 182 175 140 143 140 194 211 151 66 66 42 49 48 43 42 42 48 44 43 49 42 34 27 30 35 38 205 217 196 184 166 161 161 159 172 181 186 198 203 210 215 201 194 186
242 268 256 264 352 57 95 95 80 74 58 163 177 247 152 281 110 162 152 151 126 64 50 307 25 7 91 92 74 62 61 56 54 52 51 51 50 58 63 60 55 42 30 33 42 46 10 258 172 171 173 172 166 171 176 184 198 209 210 208 182 170 168
236 240 253 254 135 112 90 68 47 67 123 212 234 246 68 351 314 147 165 126 104 87 32 44 65 66 70 78 73 68 66 67 60 56 56 60 57 57 57 61 61 64 58 47 42 37 33 5 180 178 186 187 197 198 195 200 211 212 207 180 148 147 159
240 235 251 252 85 66 65 89 52 126 203 218 291 58 105 197 138 55 143 129 108 116 68 69 84 99 95 83 79 80 77 74 68 57 54 52 56 58 60 55 57 63 58 53 50 45 35 33 24 202 198 203 198 190 191 205 205 193 173 160 156 170 181
241 233 240 249 243 100 313 107 165 173 272 74 156 109 54 2 15 122 122 127 129 122 98 99 113 110 97 94 94 90 81 76 73 66 58 55 50 48 49 55 54 56 59 54 51 49 42 42 43 53 77 70 66 71 68 41 97 171 185 185 186 189 179
272 234 234 251 63 123 133 248 247 107 42 62 96 236 117 204 148 137 130 111 108 115 118 123 115 109 111 111 104 97 89 84 82 76 72 66 62 60 59 59 60 63 64 62 58 53 54 53 56 63 75 79 75 68 55 40 46 115 169 208 205 184 173
269 338 43 121 170 75 72 41 74 55 91 83 112 10 20 161 117 82 174 137 144 128 125 121 121 118 112 107 100 94 92 91 89 88 82 75 73 67 64 64 66 69 70 70 66 63 60 62 62 61 66 76 74 71 69 74 75 75 78 82 82 80 101
117 176 17 114 138 142 127 132 76 114 115 105 188 196 168 85 122 204 148 152 145 135 134 128 121 115 115 114 107 97 94 93 92 93 93 89 87 85 77 70 70 74 77 73 68 66 64 63 63 62 62 65 69 66 66 68 77 86 90 91 92 93 91
263 181 159 182 132 153 149 109 106 88 83 95 162 156 112 137 158 142 150 152 143 136 135 128 130 128 126 115 107 102 95 91 91 90 86 83 81 81 82 87 81 76 74 72 70 67 63 63 69 69 67 70 72 73 74 78 81 89 93 94 94 91 90
256 48 137 135 115 108 134 148 148 118 103 118 146 114 124 131 142 157 146 141 133 134 129 131 125 117 111 108 105 96 88 87 84 81 82 86 86 80 79 82 83 79 77 76 73 70 67 63 72 74 70 70 69 69 71 72 77 77 78 82 83 80 78
140 112 157 161 154 149 123 105 72 86 111 126 137 144 143 145 145 140 134 137 134 133 125 128 124 116 109 103 100 97 98 94 89 86 84 78 76 80 80 78 80 84 84 82 79 78 78 76 76 76 78 79 76 75 72 71 70 77 80 81 81 87 89
208 212 168 169 189 180 159 144 144 147 135 134 131 140 142 143 143 144 137 133 130 132 132 131 124 115 114 112 111 106 101 97 96 95 91 87 84 82 81 81 80 80 79 82 82 81 79 76 77 77 77 76 82 86 86 82 80 80 83 85 86 84 88
20 38 123 169 31 103 135 145 140 144 146 146 139 135 141 143 148 145 141 138 138 138 134 127 121 117 116 113 112 107 102 96 94 92 92 92 89 85 84 83 79 78 81 82 81 79 77 76 78 78 78 80 79 76 76 75 74 79 79 73 69 72 73
103 106 143 139 148 146 138 141 149 149 142 137 128 129 130 134 138 140 143 137 129 127 123 114 108 110 112 113 109 105 103 102 100 98 95 91 85 85 84 84 82 80 78 77 79 78 78 77 75 75 79 78 80 84 79 75 74 77 84 93 94 88 89
108 111 99 106 121 125 124 130 137 132 134 137 133 128 127 127 131 135 132 128 124 123 116 108 105 106 109 107 101 96 96 94 91 92 91 85 81 84 88 88 83 76 72 75 79 81 82 81 80 78 75 71 68 72 76 78 80 79 83 88 91 93 95